Location: Kumla
(59.1265°N, 15.1401°E)
Time: 09:07:34
(UTC+01:00)

Transit 2A - Pass Details

Date: 10 December 2023
Orbit: 600 x 953 km, 66.7° (Epoch: 22 February)

Event Time Altitude Azimuth Distance (km) Brightness Sun altitude
Rises 23:26:30 0° 307° (NW) 2,867 - -53.5°
Reaches altitude 10° 23:29:20 10° 288° (WNW) 1,952 - -53.6°
Maximum altitude 23:32:15 18° 246° (WSW) 1,509 - -53.6°
Drops below altitude 10° 23:35:11 10° 203° (SSW) 1,970 - -53.7°
Sets 23:38:04 0° 185° (S) 2,905 - -53.7°
